Regional Weather Roundup
Issued by NWS

Home | Current Version | Previous Version | Graphics & Text | Print | Product List | Glossary On
Versions: 1 2 3 4 5 6 7 8 9 10 11 12 13 14 15 16 17 18 19 20 21 22 23 24 25 26 27 28 29 30 31 32 33 34 35 36 37 38 39 40 41 42 43 44 45 46 47 48 49 50
000
ASUS43 KTOP 221708
RWRKS

WEATHER ROUNDUP FOR KANSAS
NATIONAL WEATHER SERVICE GOODLAND KS
1200 PM CDT FRI JUL 22 2016

NOTE:  "FAIR" INDICATES FEW OR NO CLOUDS BELOW 12,000 FEET WITH NO
SIGNIFICANT WEATHER AND/OR OBSTRUCTIONS TO VISIBILITY.

KSZ001>006-013>018-027>032-041>047-221800-
NORTHWEST KANSAS

CITY           SKY/WX    TMP DP  RH WIND       PRES   REMARKS
GOODLAND       CLOUDY    91  63  39 E7        30.11F
HAYS           MOSUNNY   99  64  32 W12       29.99R HX 101
HILL CITY      MOSUNNY   91  68  46 S5        29.99S HX  95
RUSSELL        SUNNY     96  66  37 SW12      29.97S HX  99
$$

KSZ061>065-074>080-084>089-221800-
SOUTHWEST KANSAS

CITY           SKY/WX    TMP DP  RH WIND       PRES   REMARKS
DODGE CITY     SUNNY     91  63  39 S10       30.06R
ELKHART          N/A     95  62  33 SE6         N/A  HX  96
GARDEN CITY    SUNNY     90  65  43 SW8       30.07R
GREAT BEND     SUNNY     97  64  34 SW14      29.99S HX  99
LIBERAL        SUNNY     93  63  36 S10       30.09S
PRATT          SUNNY     95  63  34 S13       30.03S HX  96
$$

KSZ066>073-081>083-090>101-221800-
SOUTHEAST KANSAS

CITY           SKY/WX    TMP DP  RH WIND       PRES   REMARKS
CHANUTE        SUNNY     92  74  55 S10       30.06F HX 101
COFFEYVILLE    SUNNY     95  70  44 S13       30.07S HX 101
HUTCHINSON     SUNNY     97  68  38 S16       30.01S HX 102
MEDICINE LODGE   N/A     98  62  30 S8        30.01  HX  99
NEWTON         SUNNY     94  69  44 S16       30.03S HX  99
PARSONS        SUNNY     93  72  50 SW7       30.08S HX 101
WICHITA INTL   MOSUNNY   97  66  36 S18       30.02S HX 100
WICHITA JABRA  SUNNY     94  68  42 S15       30.03S HX  98
WICHITA MCCONL SUNNY     94  67  41 SW14      30.03F HX  98
WINFIELD       SUNNY     95  68  41 S13       30.05S HX  99
$$

KSZ007>012-019>026-033>040-048>060-102>105-221800-
NORTHEAST KANSAS

CITY           SKY/WX    TMP DP  RH WIND       PRES   REMARKS
CONCORDIA      SUNNY     93  70  46 S13G20    29.97R HX  99
EMPORIA        SUNNY     96  69  41 S12G22    30.04R HX 102
LAWRENCE       SUNNY     94  74  52 S12       30.02R HX 104
MANHATTAN      SUNNY     98  70  40 S10       29.97S HX 105
MARYSVILLE     SUNNY     95  72  46 S12       29.97F HX 103
OLATHE IND     MOSUNNY   92  74  55 SE12G22   30.07R HX 101
OLATHE EXE     CLOUDY    87  75  67 SE15G25   30.08R HX  96
SALINA         SUNNY     98  68  37 S13       29.98S HX 103
TOPEKA BILLARD SUNNY     95  71  45 S13       29.99F HX 102
TOPEKA FORBES  SUNNY     96  72  45 S14       30.01F HX 104
$$




USA.gov is the U.S. government's official web portal to all federal, state and local government web resources and services.